TimeEDT,TemperatureF,Dew PointF,Humidity,Sea Level PressureIn,VisibilityMPH,Wind Direction,Wind SpeedMPH,Gust SpeedMPH,PrecipitationIn,Events,Conditions,WindDirDegrees,DateUTC
12:54 AM,75.9,73.0,91,29.85,10.0,WSW,10.4,-,N/A,,Partly Cloudy,240,2013-07-23 04:54:00
1:54 AM,73.9,73.0,97,29.83,8.0,SW,5.8,-,N/A,,Clear,220,2013-07-23 05:54:00
2:54 AM,73.9,73.0,97,29.83,6.0,SW,8.1,-,N/A,,Clear,230,2013-07-23 06:54:00
3:23 AM,73.9,73.0,97,29.86,7.0,WSW,6.9,-,N/A,,Partly Cloudy,240,2013-07-23 07:23:00
3:51 AM,73.4,73.4,100,29.86,7.0,WSW,5.8,-,N/A,,Mostly Cloudy,240,2013-07-23 07:51:00
3:54 AM,73.9,73.0,97,29.82,7.0,WSW,5.8,-,N/A,,Mostly Cloudy,240,2013-07-23 07:54:00
4:06 AM,73.9,73.0,97,29.86,8.0,SW,8.1,-,N/A,,Overcast,220,2013-07-23 08:06:00
4:42 AM,73.9,73.0,97,29.86,9.0,WSW,5.8,-,N/A,,Overcast,240,2013-07-23 08:42:00
4:54 AM,73.9,73.0,97,29.83,9.0,West,5.8,-,N/A,,Overcast,270,2013-07-23 08:54:00
5:31 AM,73.9,72.0,93,29.88,9.0,West,4.6,-,N/A,,Overcast,260,2013-07-23 09:31:00
5:54 AM,73.9,72.0,93,29.84,10.0,WSW,6.9,-,N/A,,Overcast,250,2013-07-23 09:54:00
6:54 AM,72.0,71.1,97,29.86,9.0,WSW,4.6,-,N/A,,Partly Cloudy,250,2013-07-23 10:54:00
7:10 AM,73.0,71.1,93,29.90,9.0,WSW,5.8,-,N/A,,Mostly Cloudy,240,2013-07-23 11:10:00
7:54 AM,73.9,71.1,91,29.86,10.0,WSW,8.1,-,N/A,,Mostly Cloudy,240,2013-07-23 11:54:00
8:31 AM,75.0,71.1,87,29.90,10.0,WSW,8.1,-,N/A,,Partly Cloudy,240,2013-07-23 12:31:00
8:54 AM,75.9,71.1,85,29.86,10.0,West,8.1,-,N/A,,Clear,260,2013-07-23 12:54:00
9:54 AM,79.0,70.0,74,29.86,10.0,West,10.4,-,N/A,,Scattered Clouds,260,2013-07-23 13:54:00
10:54 AM,82.0,71.1,69,29.85,10.0,West,5.8,-,N/A,,Clear,270,2013-07-23 14:54:00
11:54 AM,84.9,71.1,63,29.85,10.0,WNW,8.1,-,N/A,,Clear,290,2013-07-23 15:54:00
12:54 PM,84.9,71.1,63,29.86,10.0,West,12.7,16.1,N/A,,Partly Cloudy,280,2013-07-23 16:54:00
1:54 PM,87.1,72.0,61,29.84,10.0,West,8.1,-,N/A,,Clear,280,2013-07-23 17:54:00
2:54 PM,84.0,70.0,63,29.82,10.0,WNW,8.1,-,N/A,,Mostly Cloudy,300,2013-07-23 18:54:00
3:54 PM,88.0,71.1,57,29.79,10.0,WSW,9.2,-,N/A,,Partly Cloudy,250,2013-07-23 19:54:00
4:54 PM,87.1,70.0,57,29.78,10.0,WNW,4.6,-,N/A,,Scattered Clouds,290,2013-07-23 20:54:00
5:54 PM,87.1,69.1,55,29.77,10.0,West,5.8,-,N/A,,Clear,280,2013-07-23 21:54:00
6:54 PM,86.0,70.0,59,29.77,10.0,West,8.1,-,N/A,,Clear,270,2013-07-23 22:54:00
7:54 PM,82.0,71.1,69,29.78,8.0,SW,5.8,-,N/A,,Clear,220,2013-07-23 23:54:00
8:54 PM,80.1,71.1,74,29.78,10.0,WSW,6.9,-,N/A,,Clear,240,2013-07-24 00:54:00
9:54 PM,78.1,72.0,81,29.80,10.0,SW,5.8,-,N/A,,Clear,230,2013-07-24 01:54:00
10:54 PM,75.9,72.0,87,29.80,10.0,WSW,4.6,-,N/A,,Clear,240,2013-07-24 02:54:00
11:54 PM,75.9,73.0,91,29.80,9.0,WSW,6.9,-,N/A,,Clear,240,2013-07-24 03:54:00